Regional Weather Roundup
Issued by NWS

Home | Current Version | Previous Version | Text Only | Print | Product List | Glossary Off
Versions: 1 2 3 4 5 6 7 8 9 10 11 12 13 14 15 16 17 18 19 20 21 22 23 24 25 26 27 28 29 30 31 32 33 34 35 36 37 38 39 40 41 42 43 44 45 46 47 48 49 50

000
ASUS43 KDMX 290906
RWRIA

WEATHER ROUNDUP FOR IOWA
NATIONAL WEATHER SERVICE DES MOINES IA
400 AM CDT WED MAR 29 2017

NOTE: "FAIR" INDICATES FEW OR NO CLOUDS BELOW 12,000 FEET WITH NO
SIGNIFICANT WEATHER AND/OR OBSTRUCTIONS TO VISIBILITY.

* - THESE STATIONS ARE NOT NWS STATIONS...THUS NOT UNDER NWS
QUALITY CONTROL.  THEY ALSO DO NOT REPORT WEATHER SUCH
AS PRECIPITATION OR FOG.

IAZ001>003-012>014-020>022-031>034-043>046-291000-
   NORTHWEST IOWA

CITY           SKY/WX    TMP DP  RH WIND       PRES   REMARKS
CARROLL *      CLOUDY    45  45 100 NE7       30.11S
CHEROKEE *     DRIZZLE   44  43  97 CALM      30.12F
DENISON *      LGT RAIN  45  43  93 NE12      30.10F
LE MARS *      CLOUDY    45  41  87 NE5       30.13S
ORANGE CITY *  CLOUDY    45  43  93 NE3       30.13S
SHELDON *      CLOUDY    39  37  93 NE8       30.12F WCI  34
SIOUX CITY     CLOUDY    46  43  89 E8        30.11F
SPENCER        MOCLDY    41  39  93 NE5       30.13F
STORM LAKE *   CLOUDY    43  41  93 NE9       30.11F
$$

IAZ055>058-069>071-079>083-090>094-291000-
   SOUTHWEST IOWA

CITY           SKY/WX    TMP DP  RH WIND       PRES   REMARKS
ATLANTIC *     LGT RAIN  46  45  93 NE7G14    30.07S
CLARINDA *     CLOUDY    48  46  93 NE8       30.06F FOG
COUNCIL BLFS * LGT RAIN  46  46 100 E10       30.06S
CRESTON *      CLOUDY    46  45  93 E12       30.07S
HARLAN  *      LGT RAIN  46  46 100 NE9       30.11S
LAMONI         CLOUDY    48  44  86 E10G22    30.03F
RED OAK *      CLOUDY    46  45  93 NE10      30.05F
SHENANDOAH *   CLOUDY    48  45  87 NE12      30.04F
$$

IAZ047>049-059>061-072>074-084-291000-
   CENTRAL IOWA

CITY           SKY/WX    TMP DP  RH WIND       PRES   REMARKS
AMES           CLOUDY    44  42  93 E8        30.13S
ANKENY *       CLOUDY    45  41  87 E8        30.13R
BOONE *        CLOUDY    43  43 100 E10       30.11S
CHARITON *     CLOUDY    46  43  87 E10       30.06F
DES MOINES     CLOUDY    46  42  86 NE9       30.10R
GRINNELL*      CLOUDY    42  39  91 E12       30.12F
KNOXVILLE *    CLOUDY    43  41  93 E10       30.09S
MARSHALLTOWN   MOCLDY    41  39  93 E9        30.13S
NEWTON *       CLOUDY    43  39  87 E9        30.13R
PELLA *        CLOUDY    42  40  91 E6        30.13R
PERRY *        CLOUDY    46  43  92 E7        30.11S
$$

IAZ004>006-015-016-023>025-035-036-291000-
   NORTH CENTRAL IOWA

CITY           SKY/WX    TMP DP  RH WIND       PRES   REMARKS
ALGONA *       MOCLDY    43  43 100 NE7       30.14F
CLARION *      CLOUDY    43  43 100 E9        30.14F
ESTHERVILLE    MOCLDY    38  38 100 NE6       30.14F WCI  33
FORT DODGE *   CLOUDY    45  37  76 NE9       30.12F
MASON CITY     CLOUDY    39  37  92 NE5       30.17S
FOREST CITY *    N/A     39  34  81 CALM      30.16F
WEBSTER CITY * CLOUDY    43  41  93 E10       30.10F
IOWA FALLS *     N/A     43  40  89 NE3       30.16S
$$

IAZ007>011-017>019-026>030-037>042-050>054-066-291000-
   NORTHEAST IOWA

CITY           SKY/WX    TMP DP  RH WIND       PRES   REMARKS
CEDAR RAPIDS   CLOUDY    40  39  97 E13       30.13S WCI  32
CHARLES CITY * CLOUDY    41  41 100 NE7       30.18S
CLINTON *      CLOUDY    41  39  93 E8        30.18S
DECORAH *      PTCLDY    41  37  87 E7        30.18R
DUBUQUE        CLOUDY    38  35  89 E9        30.19R WCI  31
MONTICELLO *   CLOUDY    39  37  93 E9G21     30.16S WCI  33
OELWEIN *      CLOUDY    39  37  93 NE8       30.16S WCI  34
WATERLOO       PTCLDY    40  37  89 NE7       30.15S
$$

IAZ064-065-067-068-078-291000-
   EAST CENTRAL IOWA

CITY           SKY/WX    TMP DP  RH WIND       PRES   REMARKS
DAVENPORT      CLOUDY    40  38  93 E14       30.16F WCI  32
IOWA CITY      CLOUDY    43  38  82 E6        30.16S
MUSCATINE *    CLOUDY    43  39  87 E15       30.16S
QUAD CITIES    CLOUDY    42  38  85 E13       30.15F
$$

IAZ062-063-075>077-085>089-095>099-291000-
   SOUTHEAST IOWA

CITY           SKY/WX    TMP DP  RH WIND       PRES   REMARKS
BURLINGTON     PTCLDY    42  40  92 E13       30.10F
FAIRFIELD *    PTCLDY    41  39  93 E10       30.12R
FORT MADISON * PTCLDY    43  39  87 E8        30.11F
KEOKUK *       CLOUDY    45  43  93 E7        30.10S
OSKALOOSA *      N/A     41  39  94 E10       30.12R
CENTERVILLE *  CLOUDY    45  45 100 NE12      30.06F
OTTUMWA        CLOUDY    43  41  93 E12       30.11R
WASHINGTON *   CLOUDY    41  41 100 NE7       30.14S FOG
$$

ABBREVIATIONS USED IN REMARKS
   TC - TEMPERATURES IN CELSIUS
  WCI - WIND CHILL INDEX
   HX - HEAT INDEX
  VSB - VISIBILITY
$$





USA.gov is the U.S. government's official web portal to all federal, state and local government web resources and services.